FGA201 FOOG-FOOL

Flight info

Callsign FGA201
Flight time 0h 34m
Altitude 11000
Route TEMKI DCT SEPAS
Aircraft AT76/M-SDFGIRY/S

Departure

Time 2026-04-17 11:29
Airport Port Gentil International Airport (FOOG)

Arrival

Time 2026-04-17 12:03
Airport Libreville Leon M'ba International Airport (FOOL)
Time Latitude Longitude Altitude Speed Heading
2026-04-17 11:01 -0.71879 8.75316 34 ft 0 kts 112°
2026-04-17 11:19 -0.71873 8.75297 33 ft 4 kts 89°
2026-04-17 11:19 -0.71881 8.75275 31 ft 4 kts 38°
2026-04-17 11:19 -0.71893 8.75268 31 ft 0 kts 23°
2026-04-17 11:22 -0.71891 8.75268 31 ft 2 kts 24°
2026-04-17 11:22 -0.71866 8.75280 31 ft 6 kts 22°
2026-04-17 11:22 -0.71821 8.75297 31 ft 8 kts 19°
2026-04-17 11:22 -0.71777 8.75273 29 ft 10 kts 290°
2026-04-17 11:23 -0.71735 8.75210 27 ft 11 kts 343°
2026-04-17 11:23 -0.71666 8.75236 27 ft 11 kts 23°
2026-04-17 11:23 -0.71593 8.75268 27 ft 12 kts 21°
2026-04-17 11:23 -0.71513 8.75298 28 ft 12 kts 21°
2026-04-17 11:24 -0.71433 8.75329 24 ft 12 kts 21°
2026-04-17 11:24 -0.71354 8.75360 24 ft 12 kts 21°
2026-04-17 11:24 -0.71276 8.75391 24 ft 12 kts 21°
2026-04-17 11:24 -0.71196 8.75423 25 ft 12 kts 22°
2026-04-17 11:25 -0.71117 8.75455 24 ft 12 kts 22°
2026-04-17 11:25 -0.71044 8.75485 26 ft 11 kts 22°
2026-04-17 11:25 -0.70973 8.75514 25 ft 11 kts 22°
2026-04-17 11:25 -0.70901 8.75544 25 ft 11 kts 22°
2026-04-17 11:26 -0.70826 8.75575 24 ft 12 kts 23°
2026-04-17 11:26 -0.70752 8.75607 24 ft 11 kts 23°
2026-04-17 11:26 -0.70680 8.75637 27 ft 11 kts 23°
2026-04-17 11:26 -0.70609 8.75668 26 ft 11 kts 23°
2026-04-17 11:27 -0.70535 8.75700 25 ft 12 kts 24°
2026-04-17 11:27 -0.70459 8.75734 24 ft 12 kts 24°
2026-04-17 11:27 -0.70424 8.75781 23 ft 4 kts 28°
2026-04-17 11:27 -0.70404 8.75768 25 ft 5 kts 296°
2026-04-17 11:28 -0.70419 8.75743 23 ft 0 kts 202°
2026-04-17 11:28 -0.70513 8.75707 23 ft 46 kts 199°
2026-04-17 11:28 -0.71027 8.75499 24 ft 112 kts 200°
2026-04-17 11:29 -0.71895 8.75142 48 ft 154 kts 201°
2026-04-17 11:29 -0.72932 8.74777 435 ft 162 kts 195°
2026-04-17 11:29 -0.74031 8.74572 1084 ft 157 kts 181°
2026-04-17 11:29 -0.75048 8.74866 1767 ft 159 kts 142°
2026-04-17 11:30 -0.75700 8.75811 2097 ft 180 kts 109°
2026-04-17 11:30 -0.75755 8.77111 2374 ft 185 kts 74°
2026-04-17 11:30 -0.75146 8.78152 2907 ft 175 kts 48°
2026-04-17 11:30 -0.74145 8.78963 2837 ft 201 kts 34°
2026-04-17 11:31 -0.72877 8.79331 3388 ft 186 kts 355°
2026-04-17 11:31 -0.71637 8.79153 3862 ft 178 kts 354°
2026-04-17 11:31 -0.70402 8.79038 4235 ft 178 kts 358°
2026-04-17 11:31 -0.69161 8.78975 4604 ft 178 kts
2026-04-17 11:32 -0.67937 8.79008 4953 ft 178 kts
2026-04-17 11:32 -0.66692 8.79163 5324 ft 178 kts 10°
2026-04-17 11:32 -0.65489 8.79369 5664 ft 178 kts 14°
2026-04-17 11:32 -0.64297 8.79690 6028 ft 177 kts 20°
2026-04-17 11:33 -0.63139 8.80113 6372 ft 177 kts 24°
2026-04-17 11:33 -0.62019 8.80625 6703 ft 177 kts 28°
2026-04-17 11:33 -0.60928 8.81197 7035 ft 177 kts 30°
2026-04-17 11:33 -0.59848 8.81793 7365 ft 178 kts 31°
2026-04-17 11:34 -0.59115 8.82196 7582 ft 178 kts 31°
2026-04-17 11:34 -0.58026 8.82789 7902 ft 178 kts 31°
2026-04-17 11:34 -0.56934 8.83381 8218 ft 179 kts 31°
2026-04-17 11:34 -0.55851 8.83967 8533 ft 180 kts 31°
2026-04-17 11:35 -0.54750 8.84564 8850 ft 180 kts 31°
2026-04-17 11:35 -0.53646 8.85160 9168 ft 181 kts 31°
2026-04-17 11:35 -0.52539 8.85760 9479 ft 181 kts 31°
2026-04-17 11:35 -0.51429 8.86360 9786 ft 182 kts 31°
2026-04-17 11:36 -0.50313 8.86962 10059 ft 183 kts 31°
2026-04-17 11:36 -0.49194 8.87569 10330 ft 183 kts 31°
2026-04-17 11:36 -0.48069 8.88178 10599 ft 185 kts 31°
2026-04-17 11:36 -0.46936 8.88791 10841 ft 187 kts 31°
2026-04-17 11:37 -0.45764 8.89429 10938 ft 197 kts 31°
2026-04-17 11:37 -0.44529 8.90106 10989 ft 208 kts 31°
2026-04-17 11:37 -0.43235 8.90824 11010 ft 217 kts 31°
2026-04-17 11:37 -0.41893 8.91572 11022 ft 225 kts 31°
2026-04-17 11:38 -0.40504 8.92333 11029 ft 231 kts 31°
2026-04-17 11:38 -0.39076 8.93107 11030 ft 235 kts 31°
2026-04-17 11:38 -0.37628 8.93890 11029 ft 238 kts 30°
2026-04-17 11:38 -0.36160 8.94685 11026 ft 241 kts 30°
2026-04-17 11:39 -0.34678 8.95485 11026 ft 243 kts 30°
2026-04-17 11:39 -0.33191 8.96290 11027 ft 244 kts 30°
2026-04-17 11:39 -0.31696 8.97101 11026 ft 245 kts 30°
2026-04-17 11:39 -0.30192 8.97912 11027 ft 246 kts 30°
2026-04-17 11:40 -0.28686 8.98727 11030 ft 246 kts 30°
2026-04-17 11:40 -0.27180 8.99541 11029 ft 247 kts 30°
2026-04-17 11:40 -0.25670 9.00358 11029 ft 247 kts 30°
2026-04-17 11:40 -0.24160 9.01177 11029 ft 247 kts 30°
2026-04-17 11:41 -0.22646 9.01993 11027 ft 247 kts 30°
2026-04-17 11:41 -0.21133 9.02812 11028 ft 247 kts 30°
2026-04-17 11:41 -0.19640 9.03620 11028 ft 247 kts 30°
2026-04-17 11:41 -0.18105 9.04450 11027 ft 248 kts 30°
2026-04-17 11:42 -0.16611 9.05259 11029 ft 248 kts 30°
2026-04-17 11:42 -0.15096 9.06079 11028 ft 248 kts 30°
2026-04-17 11:42 -0.13582 9.06904 11028 ft 248 kts 30°
2026-04-17 11:42 -0.12065 9.07719 11028 ft 248 kts 30°
2026-04-17 11:43 -0.10550 9.08538 11028 ft 248 kts 30°
2026-04-17 11:43 -0.09038 9.09359 11025 ft 248 kts 30°
2026-04-17 11:43 -0.07513 9.10185 10940 ft 251 kts 31°
2026-04-17 11:43 -0.05971 9.11021 10888 ft 252 kts 30°
2026-04-17 11:44 -0.04432 9.11855 10861 ft 252 kts 30°
2026-04-17 11:44 -0.02892 9.12689 10851 ft 251 kts 30°
2026-04-17 11:44 -0.01355 9.13520 10850 ft 250 kts 30°
2026-04-17 11:44 0.00176 9.14348 10839 ft 250 kts 31°
2026-04-17 11:45 0.01704 9.15175 10838 ft 249 kts 31°
2026-04-17 11:45 0.03227 9.16004 10838 ft 249 kts 31°
2026-04-17 11:45 0.04750 9.16830 10837 ft 249 kts 31°
2026-04-17 11:45 0.06268 9.17651 10837 ft 248 kts 31°
2026-04-17 11:46 0.07787 9.18474 10839 ft 248 kts 31°
2026-04-17 11:46 0.09299 9.19296 10846 ft 248 kts 31°
2026-04-17 11:46 0.10893 9.19886 10835 ft 249 kts 14°
2026-04-17 11:46 0.12529 9.20141 10820 ft 220 kts 11°
2026-04-17 11:47 0.13954 9.20306 10673 ft 194 kts
2026-04-17 11:47 0.15251 9.20428 10443 ft 184 kts
2026-04-17 11:47 0.16520 9.20531 10199 ft 182 kts
2026-04-17 11:47 0.17774 9.20627 9970 ft 179 kts
2026-04-17 11:48 0.19013 9.20717 9743 ft 177 kts
2026-04-17 11:48 0.20235 9.20804 9494 ft 175 kts
2026-04-17 11:48 0.21446 9.20891 9246 ft 174 kts
2026-04-17 11:48 0.22646 9.20979 9000 ft 172 kts
2026-04-17 11:49 0.23838 9.21071 8751 ft 171 kts
2026-04-17 11:49 0.25021 9.21165 8504 ft 170 kts
2026-04-17 11:49 0.26198 9.21259 8264 ft 169 kts
2026-04-17 11:49 0.27346 9.21355 8167 ft 159 kts
2026-04-17 11:50 0.28447 9.21444 7932 ft 159 kts
2026-04-17 11:50 0.29551 9.21539 7709 ft 159 kts
2026-04-17 11:50 0.30652 9.21637 7488 ft 159 kts
2026-04-17 11:50 0.31749 9.21737 7269 ft 158 kts
2026-04-17 11:51 0.32842 9.21841 7058 ft 158 kts
2026-04-17 11:51 0.33931 9.21948 6846 ft 157 kts
2026-04-17 11:51 0.35016 9.22061 6635 ft 157 kts
2026-04-17 11:51 0.36085 9.22174 6427 ft 157 kts
2026-04-17 11:52 0.37165 9.22292 6225 ft 156 kts
2026-04-17 11:52 0.38244 9.22416 6017 ft 155 kts
2026-04-17 11:52 0.39315 9.22540 5806 ft 155 kts
2026-04-17 11:52 0.40381 9.22667 5599 ft 154 kts
2026-04-17 11:53 0.41443 9.22793 5394 ft 153 kts
2026-04-17 11:53 0.42502 9.22919 5180 ft 153 kts
2026-04-17 11:53 0.43524 9.23142 4943 ft 150 kts 26°
2026-04-17 11:53 0.44456 9.23607 4711 ft 150 kts 28°
2026-04-17 11:54 0.45393 9.24073 4494 ft 150 kts 27°
2026-04-17 11:54 0.46335 9.24530 4282 ft 151 kts 26°
2026-04-17 11:54 0.47287 9.24967 4067 ft 150 kts 25°
2026-04-17 11:54 0.48245 9.25383 3845 ft 150 kts 25°
2026-04-17 11:55 0.49208 9.25796 3644 ft 151 kts 24°
2026-04-17 11:55 0.50171 9.26201 3463 ft 150 kts 24°
2026-04-17 11:55 0.51132 9.26606 3308 ft 150 kts 24°
2026-04-17 11:55 0.52103 9.27013 3124 ft 152 kts 24°
2026-04-17 11:56 0.53084 9.27424 2914 ft 153 kts 24°
2026-04-17 11:56 0.54069 9.27836 2706 ft 153 kts 24°
2026-04-17 11:56 0.55050 9.28245 2502 ft 152 kts 24°
2026-04-17 11:56 0.56022 9.28651 2301 ft 151 kts 24°
2026-04-17 11:57 0.56988 9.29054 2105 ft 150 kts 24°
2026-04-17 11:57 0.57945 9.29455 1920 ft 149 kts 24°
2026-04-17 11:57 0.58896 9.29854 1740 ft 147 kts 23°
2026-04-17 11:57 0.59862 9.30246 1611 ft 153 kts 22°
2026-04-17 11:58 0.60874 9.30650 1459 ft 160 kts 23°
2026-04-17 11:58 0.61923 9.31078 1310 ft 167 kts 26°
2026-04-17 11:58 0.62753 9.31917 1154 ft 181 kts 71°
2026-04-17 11:58 0.62695 9.33175 1037 ft 191 kts 116°
2026-04-17 11:59 0.61725 9.34069 1084 ft 190 kts 158°
2026-04-17 11:59 0.60522 9.34493 1368 ft 181 kts 162°
2026-04-17 11:59 0.59332 9.34836 1585 ft 177 kts 165°
2026-04-17 11:59 0.58121 9.35167 1464 ft 180 kts 157°
2026-04-17 12:00 0.56991 9.35701 1354 ft 179 kts 154°
2026-04-17 12:00 0.55918 9.36238 1260 ft 161 kts 154°
2026-04-17 12:00 0.54957 9.36739 1127 ft 151 kts 152°
2026-04-17 12:00 0.54055 9.37221 974 ft 143 kts 152°
2026-04-17 12:01 0.53205 9.37673 871 ft 132 kts 153°
2026-04-17 12:01 0.52463 9.38050 771 ft 110 kts 153°
2026-04-17 12:01 0.51823 9.38370 654 ft 99 kts 154°
2026-04-17 12:01 0.51217 9.38669 565 ft 99 kts 154°
2026-04-17 12:02 0.50586 9.38979 505 ft 103 kts 155°
2026-04-17 12:02 0.49919 9.39301 425 ft 106 kts 155°
2026-04-17 12:02 0.49247 9.39626 350 ft 108 kts 155°
2026-04-17 12:02 0.48566 9.39956 270 ft 110 kts 155°
2026-04-17 12:03 0.47873 9.40285 178 ft 110 kts 157°
2026-04-17 12:03 0.47194 9.40585 84 ft 103 kts 154°
2026-04-17 12:03 0.46594 9.40882 35 ft 70 kts 154°
2026-04-17 12:03 0.46371 9.40986 33 ft 32 kts 155°
2026-04-17 12:04 0.46171 9.41084 33 ft 28 kts 153°
2026-04-17 12:04 0.46017 9.41157 31 ft 21 kts 155°
2026-04-17 12:04 0.45899 9.41211 31 ft 17 kts 156°
2026-04-17 12:04 0.45816 9.41179 32 ft 13 kts 252°
2026-04-17 12:05 0.45808 9.41153 33 ft 4 kts 252°
2026-04-17 12:05 0.45799 9.41124 33 ft 3 kts 269°
2026-04-17 12:05 0.45817 9.41101 33 ft 6 kts 316°
2026-04-17 12:05 0.45860 9.41080 33 ft 8 kts 334°
2026-04-17 12:06 0.45885 9.41051 33 ft 3 kts 238°
2026-04-17 12:06 0.45869 9.41027 33 ft 3 kts 242°
2026-04-17 12:06 0.45864 9.41017 33 ft 2 kts 243°
2026-04-17 12:06 0.45861 9.41011 33 ft 0 kts 243°